Regional Weather Roundup
Issued by NWS Grand Forks, ND

Home | Current Version | Previous Version | Graphics & Text | Print | Product List | Glossary On
Versions: 1 2 3 4 5 6 7 8 9 10 11 12 13 14 15 16 17 18 19 20 21 22 23 24 25 26 27 28 29 30 31 32 33 34 35 36 37 38 39 40 41 42 43 44 45 46 47 48 49 50
000
ASUS43 KFGF 262231
RWRFGF
PRAIRIE TO PINES  WEATHER ROUNDUP
NATIONAL WEATHER SERVICE EASTERN NORTH DAKOTA/GRAND FORKS ND
400 PM CST FRI DEC 26 2014

 **SATELLITE DATA USED TO AUGMENT SKY COVER AT AUTOMATED STATIONS**
 *****  WEATHER ACROSS EASTERN NORTH DAKOTA  *****

CITY           SKY/WX    TMP DP  RH WIND       PRES   REMARKS
GRAND FORKS    CLEAR     13   4  67 NW14      30.22R WCI  -2
GRAND FRKS AFB PTCLDY    11   4  74 N10       30.23  WCI  -2
GRAND FRKS NWS   N/A     12 N/A N/A N10         N/A  WCI  -1
DEVILS LAKE    CLEAR      9   0  66 NW9       30.17S WCI  -5
FARGO          CLOUDY    24  17  74 N15       30.18R WCI  11
WAHPETON ARPT  CLOUDY    25  18  74 N13       30.16R WCI  13
$$

 ***** WEATHER ACROSS CENTRAL AND WESTERN NORTH DAKOTA  *****

CITY           SKY/WX    TMP DP  RH WIND       PRES   REMARKS
BISMARCK       MOCLDY    17   9  70 N8        30.18R WCI   7
MINOT          CLEAR     12   5  73 N6        30.17R WCI   3
JAMESTOWN      CLEAR      9   3  77 NW12      30.19R WCI  -6
MINOT AFB      CLEAR     10   6  82 N6        30.17R WCI   0
GARRISON         N/A     17   9  70 NW8       30.14S WCI   7
WILLISTON      CLOUDY    20  13  74 S5        30.15R WCI  13
DICKINSON      PTCLDY    24  14  65 N5        30.08S WCI  18
HETTINGER      MOCLDY    24  12  60 NW9       30.11R WCI  14
$$

 *****  OTHER AIRPORT OBSERVATIONS IN OUR AREA  *****

CITY           SKY/WX    TMP DP  RH WIND       PRES   REMARKS
WALHALLA         N/A      5   5 100 NW9       30.23S WCI  -9
GRAFTON AIRPOR NOT AVBL
VALLEY CITY AR MOCLDY    10  10 100 NW12      30.19R WCI  -4
CANDO          FAIR       7   1  78 NW8       30.19R WCI  -6
CAVALIER APRT  CLOUDY     9   5  85 NW10      30.23R WCI  -6
GWINNER        CLOUDY    19  19 100 NW15      30.18R WCI   5
SHEYENNE NWR     N/A     19  15  83 NW8       29.95  WCI   9
ROLLA          FAIR       5   0  78 N6        30.15R WCI  -6
 ***** THE ABOVE OBSERVATIONS ARE NON NWS ARE NOT QUALITY
       CONTROLLED AND MAY MIS-REPORT RAIN FOR SNOW...
$$

  *****  WEATHER ACROSS NORTHERN MINNESOTA  *****

CITY           SKY/WX    TMP DP  RH WIND       PRES   REMARKS
FLAG ISLAND    CLOUDY    16   9  73 N8        30.15R WCI   5
WARROAD        LGT SNOW  18  12  79 NW6       30.15S WCI   9
ROSEAU         CLOUDY    19  12  73 NW10      30.16R WCI   8
HALLOCK        LGT SNOW  12   9  85 NW9       30.21R WCI   0
THF RVR FALLS  CLOUDY    18  12  79 NW9       30.17R WCI   6
BAUDETTE       CLOUDY    20  13  74 NW6       30.13R WCI  12
WASKISH        FLURRIES  21  18  86 CALM      30.13R
CROOKSTON      MOCLDY    18  12  79 NW13      30.21R WCI   4
STEPHEN NDAWN    N/A     12   9  85 NW12        N/A  WCI  -2
GREENBUSH NDAW   N/A     18  12  79 NW12        N/A  WCI   5
$$
  *****  WEATHER ACROSS CENTRAL AND WEST MINNESOTA  *****

CITY           SKY/WX    TMP DP  RH WIND       PRES   REMARKS
FOSSTON        CLOUDY    18  16  93 NW9       30.15R WCI   6
BEMIDJI        CLOUDY    22  15  74 NW7       30.12R WCI  14
PARK RAPIDS    CLOUDY    25  17  72 N12       30.09S WCI  14
ELBOW LAKE     CLOUDY    24  19  83 N13       30.11S WCI  12
WADENA         CLOUDY    23  18  80 N10       30.09S WCI  12
DETROIT LAKES  MOCLDY    23  21  93 N14       30.13R WCI  11
MOORHEAD       DRIZZLE   23  19  86 N10       30.19R WCI  12
FERGUS FALLS   CLOUDY    23  16  74 N13G20    30.16R WCI  11
MORRIS MN      MOCLDY    27  21  80 N15       30.09S WCI  15
STAPLES        CLOUDY    25  18  74 N7        30.09R WCI  17
$$
  *****  WEATHER ELSEWHERE ACROSS MINNESOTA  *****

CITY           SKY/WX    TMP DP  RH WIND       PRES   REMARKS
DULUTH         CLOUDY    29  20  69 N7        30.03S WCI  22
INTRNTL FALLS  CLOUDY    22  16  78 N7        30.11R WCI  13
ELY            CLOUDY    25  19  80 NW3       30.06R
CLOQUET        CLOUDY    28  21  74 N6        30.06R WCI  22
WHEATON        CLOUDY    21  18  86 N15       30.15S WCI   8
BRAINERD       CLOUDY    26  18  71 N13       30.09R WCI  15
HIBBING        CLOUDY    27  17  66 N9        30.07R WCI  18
ALEXANDRIA     CLOUDY    25  18  74 N14       30.08S WCI  13
SAINT CLOUD    CLOUDY    32  22  66 N12       30.06R WCI  23
MINNEAPOLIS    CLOUDY    32  25  75 N10       30.04R WCI  24
$$

  *****  WEATHER ACROSS SOUTH DAKOTA  *****

CITY           SKY/WX    TMP DP  RH WIND       PRES   REMARKS
SIOUX FALLS    LGT SNOW  26  22  84 N13       30.06R FOG     WCI  15
BROOKINGS      NOT AVBL
WATERTOWN      CLOUDY    21  17  84 NE15      30.07R WCI   8
HURON          CLOUDY    23  18  81 N14       30.14R WCI  11
SISSETON         N/A     23  19  85 NE18      30.13S WCI   9
ABERDEEN       CLOUDY    22  16  78 N14       30.16R WCI   9
MITCHELL       CLOUDY    25  21  85 N14       30.12R WCI  13
PIERRE         CLOUDY    20  15  81 N12       30.14R WCI   8
MOBRIDGE       CLOUDY    20  11  68 N8        30.13F WCI  10
RAPID CITY     CLOUDY    18  13  80 NE7       30.09R WCI   9
$$

  *****  SOME WEATHER IN NEARBY STATES *****

CITY           SKY/WX    TMP DP  RH WIND       PRES   REMARKS
GLASGOW MT     CLOUDY    26  19  74 NW7       30.08R WCI  18
GREAT FALLS MT SUNNY     15  12  88 SW7       30.10S WCI   5
CHEYENNE WY    CLOUDY    14   7  73 N8        29.88R WCI   3
SCOTTSBLUFF NE LGT SNOW  20  16  84 N5        30.02S FOG     WCI  13
OMAHA NE       CLOUDY    33  30  88 N12       30.00S WCI  24
DES MOINES IA  CLOUDY    35  31  85 N5        29.98R FOG
DAVENPORT IA   PTCLDY    49  36  61 SW5       29.95F
CHICAGO IL     MOCLDY    47  38  71 S12       29.99R
EAU CLAIRE WI  CLOUDY    34  28  79 N7        30.00R
LA CROSSE WI   MOCLDY    38  32  79 NW12      29.97R
$$

  *****  SOME NATIONAL WEATHER *****

CITY           SKY/WX    TMP DP  RH WIND       PRES   REMARKS
LA GUARDIA NY  PTCLDY    48  28  46 W6        30.19S
RALEIGH NC     PTCLDY    53  36  52 CALM      30.29S
ATLANTA GA     MOCLDY    56  32  40 E3        30.26F
NEW ORLEANS LA PTSUNNY   66  54  65 E8        30.13R
OKLAHOMA CITY  PTSUNNY   53  38  56 N12       29.87R
ALBUQUERQUE NM PTSUNNY   36   8  31 W13G23    29.88R
SALT LAKE CITY PTSUNNY   30  16  56 NW14      30.06R WCI  19
LOS ANGELES CA SUNNY     60  17  18 W7        30.05S
BOISE ID       PTSUNNY   36  25  64 NW14      30.21R
SEATTLE WA     MOSUNNY   41  37  86 CALM      30.35S
$$

*** WEATHER ACROSS MANITOBA...SASKATCHEWAN AND ONTARIO ***
                ***ONTARIO***

CITY           SKY/WX    TMP DP  RH WIND       PRES   REMARKS
GERALDTON      CLOUDY    25  21  86 N5        30.01R WCI  19
THUNDER BAY    CLOUDY    32  21  64 NW6       30.06R
SIOUX LOOKOUT  FLURRIES  16  12  86 NW5       30.07R WCI   9
TORONTO        MOCLDY    43  36  75 SW10      30.10R
BIG TROUT LK   FLURRIES   5   1  85 NW8       30.06R WCI  -8
PICKLE LAKE    FLURRIES  19  16  86 W3        30.01R
DRYDEN         FLURRIES  12  10  92 NW7       30.09R WCI   2
KENORA         SNOWSHWR  10   5  79 NW7       30.13R WCI   0
$$
                *** MANITOBA***

CITY           SKY/WX    TMP DP  RH WIND       PRES   REMARKS
BRANDON        PTCLDY    -4  -9  77 NW8       30.21R WCI -19
DAUPHIN        CLEAR     -8 -13  77 W9        30.21F WCI -25
ISLAND LAKE    PTCLDY    -8 -15  71 W5        30.13F WCI -19
PILOT MOUND      N/A     -2  -8  78 NW8         N/A  WCI -17
THE PAS        FLURRIES  -4  -9  77 W7        30.15F WCI -18
THOMPSON       PTCLDY   -20 -26  76 W6        30.10S WCI -36
WINNIPEG       FLURRIES   7   1  78 N10       30.24  WCI  -8
CHURCHILL      LGT SNOW  -8 -13  77 W12       30.02  WCI -27
GILLAM         CLEAR    -17 -24  70 W9        30.09R WCI -36
$$
                ***SASKATCHEWAN***

CITY           SKY/WX    TMP DP  RH WIND       PRES   REMARKS
ESTEVAN        MOCLDY     7   0  72 W5        30.15R WCI  -2
KINDERSLEY     PTCLDY    16  12  86 W10       30.05S WCI   3
LLOYDMINSTER   MOCLDY     9   7  92 W8        30.01F WCI  -4
PRINCE ALBERT  LGT SNOW   5   1  85 S5        30.07  WCI  -4
REGINA         CLOUDY     5   1  85 SE3       30.11F
YORKTON        CLEAR     -4 -11  71 S6        30.14F WCI -16
N. BATTLEFORD  FLURRIES  14  10  85 W7        30.06F WCI   4
LA RONGE       PTCLDY   -11 -15  84 W3        30.10
SASKATOON      FLURRIES  10   5  79 SW10G17   30.09F WCI  -3
SWIFT CURRENT  FLURRIES  16  14  93 W12       30.05S WCI   3
$$
NOTE: THESE ARE AUTOMATED STATIONS WITH LIMITED QUALITY CONTROL
      "FAIR" INDICATES FEW OR NO CLOUDS BELOW 12,000 FEET WITH NO
      SIGNIFICANT WEATHER AND/OR OBSTRUCTIONS TO VISIBILITY.
      SKY/WX - SKY CONDITION AND SIGNIFICANT WEATHER.
      TMP - AIR TEMPERATURE.    DP   - DEWPOINT TEMPERATURE.
      RH  - RELATIVE HUMIDITY.  PRES - PRESSURE.
      HX  - HEAT INDEX.         WCI  - WIND CHILL INDEX.
$



USA.gov is the U.S. government's official web portal to all federal, state and local government web resources and services.